Regional Weather Roundup
Issued by NWS

Home | Current Version | Previous Version | Graphics & Text | Print | Product List | Glossary Off
Versions: 1 2 3 4 5 6 7 8 9 10 11 12 13 14 15 16 17 18 19 20 21 22 23 24 25 26 27 28 29 30 31 32 33 34 35 36 37 38 39 40 41 42 43 44 45 46 47 48 49 50

000
ASUS43 KDMX 191907
RWRIA

WEATHER ROUNDUP FOR IOWA
NATIONAL WEATHER SERVICE DES MOINES IA
200 PM CDT TUE AUG 19 2014

NOTE: "FAIR" INDICATES FEW OR NO CLOUDS BELOW 12,000 FEET WITH NO
SIGNIFICANT WEATHER AND/OR OBSTRUCTIONS TO VISIBILITY.

* - THESE STATIONS ARE NOT NWS STATIONS...THUS NOT UNDER NWS
QUALITY CONTROL.  THEY ALSO DO NOT REPORT WEATHER SUCH
AS PRECIPITATION OR FOG.

IAZ001>003-012>014-020>022-031>034-043>046-192000-
   NORTHWEST IOWA

CITY           SKY/WX    TMP DP  RH WIND       PRES   REMARKS
CARROLL *      SUNNY     81  66  61 NW5       29.83S HX  83
CHEROKEE *     MOSUNNY   81  66  61 W6        29.83S HX  83
DENISON *      MOSUNNY   81  64  57 CALM      29.81F HX  82
LE MARS *      SUNNY     81  64  57 VRB6      29.83S HX  82
ORANGE CITY *  MOSUNNY   81  63  54 SW5       29.84R HX  82
SHELDON *      MOSUNNY   81  64  57 CALM      29.82S HX  82
SIOUX CITY     SUNNY     84  64  50 N5        29.82F HX  85
SPENCER        MOSUNNY   81  65  58 VRB7      29.82S HX  83
STORM LAKE *   SUNNY     79  68  69 NW6       29.84S HX  81
$$

IAZ055>058-069>071-079>083-090>094-192000-
   SOUTHWEST IOWA

CITY           SKY/WX    TMP DP  RH WIND       PRES   REMARKS
ATLANTIC *     SUNNY     82  66  57 N6        29.82F HX  85
AUDUBON *      SUNNY     86  70  58 NW3       29.84F HX  90
CLARINDA *     SUNNY     86  66  51 VRB5      29.84S HX  88
COUNCIL BLFS * SUNNY     86  63  45 VRB5      29.82F HX  87
CRESTON *      SUNNY     82  66  57 NW8       29.85S HX  85
HARLAN  *      SUNNY     82  68  61 NW7       29.86F HX  85
LAMONI         SUNNY     84  65  52 NW10      29.83S HX  86
RED OAK *      SUNNY     86  63  45 CALM      29.83S HX  87
SHENANDOAH *   SUNNY     86  68  54 N6        29.83S HX  89
$$

IAZ047>049-059>061-072>074-084-192000-
   CENTRAL IOWA

CITY           SKY/WX    TMP DP  RH WIND       PRES   REMARKS
AMES           SUNNY     82  63  52 NW8       29.81S HX  83
ANKENY *       MOSUNNY   82  66  57 W13G18    29.81S HX  85
CHARITON *     SUNNY     82  66  57 NW10G17   29.83R HX  85
DES MOINES     MOSUNNY   85  64  49 W10       29.81S HX  86
GRINNELL*      MOSUNNY   81  66  61 W12       29.81S HX  83
KNOXVILLE *    MOSUNNY   82  64  54 W9        29.80S HX  84
MARSHALLTOWN   MOSUNNY   82  65  56 NW15      29.80S HX  84
PELLA *        SUNNY     82  64  54 NW10G18   29.81S HX  84
PERRY *          N/A     82  64  54 NW5       29.82F HX  84
$$

IAZ004>006-015-016-023>025-035-036-192000-
   NORTH CENTRAL IOWA

CITY           SKY/WX    TMP DP  RH WIND       PRES   REMARKS
ALGONA *       PTSUNNY   79  64  61 VRB6      29.82R HX  81
CLARION *      MOSUNNY   81  64  57 NW6G12    29.81S HX  82
ESTHERVILLE    MOSUNNY   80  65  59 NW10      29.81S HX  82
FORT DODGE *   SUNNY     81  63  54 NW5       29.83S HX  82
MASON CITY     PTSUNNY   80  63  55 N8        29.81S HX  81
FOREST CITY *  CLOUDY    81  64  57 NW8       29.80S HX  82
IOWA FALLS *     N/A     81  63  54 NW7       29.82S HX  82
$$

IAZ007>011-017>019-026>030-037>042-050>054-066-192000-
   NORTHEAST IOWA

CITY           SKY/WX    TMP DP  RH WIND       PRES   REMARKS
CEDAR RAPIDS   MOSUNNY   82  65  56 NW10      29.77S HX  84
CHARLES CITY * MOSUNNY   79  66  65 W10       29.79F HX  81
CLINTON *      MOSUNNY   84  64  51 W14       29.77S HX  86
DECORAH *      PTSUNNY   77  64  65 VRB7G13   29.76S
DUBUQUE        PTSUNNY   82  62  50 W14G21    29.76S HX  83
MONTICELLO *   PTSUNNY   81  64  57 W10       29.76S HX  82
OELWEIN *      MOSUNNY   77  64  65 NW13      29.79R
WATERLOO       SUNNY     81  63  54 NW9       29.77S HX  82
$$

IAZ064-065-067-068-078-192000-
   EAST CENTRAL IOWA

CITY           SKY/WX    TMP DP  RH WIND       PRES   REMARKS
DAVENPORT      MOSUNNY   84  65  52 W12G21    29.76S HX  86
IOWA CITY      PTSUNNY   83  65  54 W7        29.78S HX  85
MT. PLEASANT * MOSUNNY   84  64  51 W8        29.78S HX  86
MUSCATINE *    MOSUNNY   88  63  42 W14G21    29.76F HX  88
QUAD CITIES    MOSUNNY   86  67  52 W10       29.75S HX  89
$$

IAZ062-063-075>077-085>089-095>099-192000-
   SOUTHEAST IOWA

CITY           SKY/WX    TMP DP  RH WIND       PRES   REMARKS
BURLINGTON     SUNNY     83  69  62 SW8       29.78S HX  86
FAIRFIELD *    MOSUNNY   84  68  58 W9        29.80S HX  87
FORT MADISON * SUNNY     84  73  70 SW5       29.80S HX  91
KEOKUK *       SUNNY     82  72  69 SW9       29.79S HX  87
OSKALOOSA *      N/A     82  66  57 W8        29.81S HX  85
CENTERVILLE *  SUNNY     84  68  58 W6        29.83S HX  87
OTTUMWA        SUNNY     83  65  54 W12       29.80R HX  85
WASHINGTON *   MOSUNNY   84  68  58 W9G15     29.78S HX  87
$$

ABBREVIATIONS USED IN REMARKS
   TC - TEMPERATURES IN CELSIUS
  WCI - WIND CHILL INDEX
   HX - HEAT INDEX
  VSB - VISIBILITY
$$



USA.gov is the U.S. government's official web portal to all federal, state and local government web resources and services.